Location: Vihti�l�
(61.3833°N, 23.0667°E)
Time: 04:57:01
(UTC+00:00)

ADEOS II - Pass Details

Date: 29 November 2020
Orbit: 799 x 801 km, 98.5° (Epoch: 22 January)

Event Time Altitude Azimuth Distance (km) Brightness Sun altitude
Rises 01:35:21 0° 18° (NNE) 3,329 5.8 -37.6°
Reaches altitude 10° 01:37:42 10° 17° (NNE) 2,394 5.0 -37.3°
Enters shadow 01:39:03 18° 16° (NNE) 1,871 4.3 -37.2°
